Leesburg, VA

7:57 AM EST on February 14, 2016 (GMT -0500)
Leesburg Executive

Weather History for KJYO - February, 2012

Change the Weather History Date:

Saturday, February 25, 2012

  Actual Average (KIAD) Record (KIAD)
Temperature  
Mean Temperature 36 °F 38 °F  
Max Temperature 41 °F 49 °F 79 °F (2000)
Min Temperature 32 °F 28 °F 6 °F (2015)
Degree Days  
Heating Degree Days 28 27  
Month to date heating degree days 729  
Since 1 July heating degree days 3513  
Cooling Degree Days 0 0  
Month to date cooling degree days 0  
Year to date cooling degree days 0  
Moisture  
Dew Point 21 °F    
Average Humidity 54    
Maximum Humidity 70    
Minimum Humidity 39    
Precipitation  
Precipitation 0.00 in 0.10 in 1.20 in (1979)
Month to date precipitation 2.46  
Year to date precipitation 5.14  
Snow  
Snow 0.00 in 0.20 in 4.50 in (2007)
Month to date snowfall 7.0  
Since 1 July snowfall 18.3  
Snow Depth -    
Sea Level Pressure  
Sea Level Pressure 29.95 in    
Wind  
Wind Speed 19 mph (WNW)    
Max Wind Speed 26 mph    
Max Gust Speed 46 mph    
Visibility 10 miles    
Events      
T = Trace of Precipitation, MM = Missing Value Source: NWS Daily Summary

Daily Weather History Graph

Daily Weather History Graph

Search for Another Location

Airport or City:

Trip Planner

Search our weather history database for the weather conditions in past years. The results will help you decide how hot, cold, wet, or windy it might be!

Date:

Astronomy

Feb. 25, 2012 Rise Set
Actual Time 6:49 AM EST 5:58 PM EST
Civil Twilight 6:22 AM EST 6:24 PM EST
Nautical Twilight 5:51 AM EST 6:56 PM EST
Astronomical Twilight 5:20 AM EST 7:26 PM EST
Moon 8:14 AM EST (2/25) 9:54 PM EST (2/25)
Length of Visible Light 12h 02m
Length of Day
11h 08m
Waxing Crescent, 13% of the Moon is Illuminated
Feb 25
Waxing Crescent
Feb 29
First Quarter
Mar 8
Full
Mar 14
Last Quarter
Mar 22
New

Hourly Weather History & Observations

Time (EST) Temp. Windchill Dew Point Humidity Pressure Visibility Wind Dir Wind Speed Gust Speed Precip Events Conditions
12:15 AM 41.0 °F 32.2 °F 26.6 °F 57% 29.69 in 10.0 mi WNW 18.4 mph 27.6 mph N/A   Mostly Cloudy
12:35 AM 39.2 °F 29.6 °F 28.4 °F 65% 29.70 in 10.0 mi WNW 19.6 mph 28.8 mph N/A   Scattered Clouds
12:55 AM 39.2 °F 28.5 °F 26.6 °F 61% 29.70 in 10.0 mi WNW 24.2 mph 33.4 mph N/A   Clear
1:35 AM 39.2 °F 28.5 °F 26.6 °F 61% 29.71 in 10.0 mi WNW 24.2 mph 38.0 mph N/A   Mostly Cloudy
1:55 AM 39.2 °F 29.6 °F 24.8 °F 56% 29.71 in 10.0 mi WNW 19.6 mph 36.8 mph N/A   Scattered Clouds
2:15 AM 39.2 °F 30.5 °F 24.8 °F 56% 29.71 in 10.0 mi West 16.1 mph 28.8 mph N/A   Scattered Clouds
2:35 AM 37.4 °F 26.4 °F 26.6 °F 65% 29.72 in 10.0 mi West 23.0 mph 29.9 mph N/A   Scattered Clouds
2:55 AM 37.4 °F 25.6 °F 24.8 °F 60% 29.72 in 10.0 mi WNW 26.5 mph 46.0 mph N/A   Scattered Clouds
3:15 AM 37.4 °F 28.2 °F 26.6 °F 65% 29.72 in 10.0 mi WNW 16.1 mph 32.2 mph N/A   Scattered Clouds
4:35 AM 35.6 °F 27.5 °F 26.6 °F 70% 29.76 in 10.0 mi West 11.5 mph 18.4 mph N/A   Scattered Clouds
4:55 AM 35.6 °F 27.1 °F 26.6 °F 70% 29.77 in 10.0 mi West 12.7 mph 24.2 mph N/A   Clear
5:15 AM 35.6 °F 29.9 °F 26.6 °F 70% 29.77 in 10.0 mi West 6.9 mph 21.9 mph N/A   Clear
5:35 AM 35.6 °F 29.2 °F 26.6 °F 70% 29.78 in 10.0 mi West 8.1 mph - N/A   Clear
5:55 AM 35.6 °F 28.0 °F 26.6 °F 70% 29.78 in 10.0 mi West 10.4 mph 16.1 mph N/A   Scattered Clouds
6:15 AM 35.6 °F 25.9 °F 24.8 °F 65% 29.78 in 10.0 mi West 16.1 mph 23.0 mph N/A   Scattered Clouds
7:15 AM 35.6 °F 26.2 °F 24.8 °F 65% 29.82 in 10.0 mi West 15.0 mph 24.2 mph N/A   Mostly Cloudy
7:35 AM 35.6 °F 25.9 °F 24.8 °F 65% 29.83 in 10.0 mi West 16.1 mph 32.2 mph N/A   Overcast
7:55 AM 35.6 °F 24.5 °F 24.8 °F 65% 29.85 in 10.0 mi West 20.7 mph 38.0 mph N/A   Overcast
8:15 AM 35.6 °F 24.5 °F 23.0 °F 60% 29.85 in 10.0 mi West 20.7 mph 31.1 mph N/A   Scattered Clouds
8:35 AM 35.6 °F 25.2 °F 23.0 °F 60% 29.86 in 10.0 mi West 18.4 mph 33.4 mph N/A   Scattered Clouds
8:55 AM 35.6 °F 24.0 °F 23.0 °F 60% 29.87 in 10.0 mi West 23.0 mph 38.0 mph N/A   Clear
9:15 AM 35.6 °F 24.8 °F 21.2 °F 56% 29.87 in 10.0 mi WNW 19.6 mph 31.1 mph N/A   Clear
9:35 AM 37.4 °F 27.2 °F 19.4 °F 48% 29.87 in 10.0 mi WNW 19.6 mph 33.4 mph N/A   Clear
9:55 AM 39.2 °F 30.5 °F 19.4 °F 45% 29.87 in 10.0 mi WNW 16.1 mph 38.0 mph N/A   Clear
10:15 AM 37.4 °F 26.6 °F 17.6 °F 45% 29.88 in 10.0 mi WNW 21.9 mph 36.8 mph N/A   Scattered Clouds
10:55 AM 41.0 °F 31.1 °F 19.4 °F 42% 29.88 in 10.0 mi WNW 23.0 mph 33.4 mph N/A   Scattered Clouds
11:15 AM 41.0 °F 31.1 °F 19.4 °F 42% 29.89 in 10.0 mi WNW 23.0 mph 36.8 mph N/A   Mostly Cloudy
11:35 AM 41.0 °F 31.4 °F 19.4 °F 42% 29.89 in 10.0 mi WNW 21.9 mph 28.8 mph N/A   Overcast
11:55 AM 41.0 °F 31.1 °F 17.6 °F 39% 29.90 in 10.0 mi West 23.0 mph 38.0 mph N/A   Overcast
12:15 PM 41.0 °F 31.6 °F 17.6 °F 39% 29.89 in 10.0 mi WNW 20.7 mph 33.4 mph N/A   Overcast
12:35 PM 41.0 °F 30.5 °F 19.4 °F 42% 29.89 in 10.0 mi WNW 26.5 mph 44.9 mph N/A   Overcast
12:55 PM 41.0 °F 31.9 °F 19.4 °F 42% 29.89 in 10.0 mi NW 19.6 mph 32.2 mph N/A   Overcast
1:15 PM 41.0 °F 31.4 °F 17.6 °F 39% 29.90 in 10.0 mi WNW 21.9 mph 33.4 mph N/A   Mostly Cloudy
1:35 PM 41.0 °F 33.5 °F 19.4 °F 42% 29.91 in 10.0 mi WNW 13.8 mph 26.5 mph N/A   Mostly Cloudy
1:55 PM 39.2 °F 29.8 °F 17.6 °F 42% 29.92 in 10.0 mi WNW 18.4 mph 27.6 mph N/A   Overcast
2:15 PM 39.2 °F 30.2 °F 19.4 °F 45% 29.93 in 10.0 mi NW 17.3 mph 33.4 mph N/A   Mostly Cloudy
2:35 PM 39.2 °F 28.0 °F 17.6 °F 42% 29.93 in 10.0 mi NW 26.5 mph 38.0 mph N/A   Mostly Cloudy
2:55 PM 39.2 °F 28.7 °F 17.6 °F 42% 29.94 in 10.0 mi WNW 23.0 mph 36.8 mph N/A   Overcast
3:15 PM 37.4 °F 25.6 °F 17.6 °F 45% 29.95 in 10.0 mi WNW 26.5 mph 38.0 mph N/A   Overcast
3:35 PM 37.4 °F 26.6 °F 17.6 °F 45% 29.96 in 10.0 mi WNW 21.9 mph 41.4 mph N/A   Overcast
3:55 PM 37.4 °F 25.6 °F 17.6 °F 45% 29.96 in 10.0 mi WNW 26.5 mph 43.7 mph N/A   Mostly Cloudy
4:15 PM 37.4 °F 25.9 °F 17.6 °F 45% 29.98 in 10.0 mi WNW 25.3 mph 40.3 mph N/A   Mostly Cloudy
4:35 PM 37.4 °F 26.4 °F 17.6 °F 45% 29.99 in 10.0 mi NW 23.0 mph 35.7 mph N/A   Overcast
5:15 PM 35.6 °F 24.2 °F 17.6 °F 48% 30.03 in 10.0 mi WNW 21.9 mph 32.2 mph N/A   Scattered Clouds
5:35 PM 35.6 °F 26.2 °F 17.6 °F 48% 30.06 in 10.0 mi WNW 15.0 mph 26.5 mph N/A   Scattered Clouds
5:55 PM 35.6 °F 23.2 °F 15.8 °F 44% 30.07 in 10.0 mi WNW 26.5 mph 33.4 mph N/A   Mostly Cloudy
6:15 PM 35.6 °F 25.5 °F 15.8 °F 44% 30.09 in 10.0 mi WNW 17.3 mph 29.9 mph N/A   Mostly Cloudy
6:55 PM 33.8 °F 22.8 °F 17.6 °F 52% 30.13 in 10.0 mi WNW 18.4 mph 25.3 mph N/A   Scattered Clouds
7:15 PM 33.8 °F 23.5 °F 17.6 °F 52% 30.14 in 10.0 mi WNW 16.1 mph 26.5 mph N/A   Scattered Clouds
7:35 PM 33.8 °F 24.8 °F 17.6 °F 52% 30.15 in 10.0 mi NW 12.7 mph 26.5 mph N/A   Mostly Cloudy
7:55 PM 33.8 °F 22.8 °F 17.6 °F 52% 30.16 in 10.0 mi WNW 18.4 mph 25.3 mph N/A   Mostly Cloudy
8:15 PM 33.8 °F 23.5 °F 19.4 °F 56% 30.16 in 10.0 mi NW 16.1 mph 27.6 mph N/A   Clear
8:35 PM 32.0 °F 21.6 °F 19.4 °F 60% 30.18 in 10.0 mi WNW 15.0 mph 23.0 mph N/A   Clear
8:55 PM 32.0 °F 23.6 °F 19.4 °F 60% 30.19 in 10.0 mi WNW 10.4 mph 18.4 mph N/A   Clear
9:15 PM 32.0 °F 22.5 °F 19.4 °F 60% 30.21 in 10.0 mi NW 12.7 mph 18.4 mph N/A   Scattered Clouds
9:35 PM 32.0 °F 24.8 °F 19.4 °F 60% 30.21 in 10.0 mi NW 8.1 mph 19.6 mph N/A   Overcast
9:55 PM 32.0 °F 23.0 °F 19.4 °F 60% 30.23 in 10.0 mi WNW 11.5 mph 16.1 mph N/A   Overcast
10:15 PM 33.8 °F 23.9 °F 19.4 °F 56% 30.23 in 10.0 mi WNW 15.0 mph 21.9 mph N/A   Overcast
10:35 PM 33.8 °F 24.3 °F 19.4 °F 56% 30.24 in 10.0 mi WNW 13.8 mph 18.4 mph N/A   Overcast
10:55 PM 33.8 °F 24.3 °F 19.4 °F 56% 30.26 in 10.0 mi WNW 13.8 mph 19.6 mph N/A   Overcast
11:15 PM 33.8 °F 24.3 °F 21.2 °F 60% 30.25 in 10.0 mi NW 13.8 mph 20.7 mph N/A   Overcast
11:35 PM 33.8 °F 24.8 °F 21.2 °F 60% 30.26 in 10.0 mi NW 12.7 mph 18.4 mph N/A   Overcast
11:55 PM 33.8 °F 24.8 °F 21.2 °F 60% 30.27 in 10.0 mi NW 12.7 mph 17.3 mph N/A   Overcast